Wind_Speed
16 15 13 14 14 15 12 12 13 13 15 15 13 13 14 13 12 12 12 12 11 12 11 10 10 10 9 9 9 10 10 10 11 11 11 11 10 10 9 9 8 8 8 7
15 14 13 14 15 15 14 14 14 14 15 14 14 14 14 14 13 13 13 13 13 13 12 11 10 10 10 9 9 10 10 11 11 12 12 11 11 11 10 9 8 8 8 8
16 14 15 15 15 15 16 16 16 15 14 15 15 15 15 17 16 16 15 14 14 14 12 11 12 11 11 10 11 11 12 12 13 13 12 12 12 11 11 11 10 9 9 9
16 15 16 16 16 16 16 16 15 14 15 16 16 16 16 18 18 17 15 15 14 14 13 13 13 13 12 12 12 13 13 13 13 13 13 13 12 12 13 12 11 10 10 10
18 17 17 17 16 16 15 16 16 15 16 16 16 17 16 18 18 16 15 16 15 15 15 14 15 14 15 15 14 14 14 14 14 14 13 13 13 13 13 12 12 12 12 12
19 19 18 17 16 17 16 16 17 17 17 18 16 17 18 19 18 15 14 15 16 16 16 16 15 15 16 16 15 14 15 15 14 14 14 13 14 14 13 12 12 13 13 13
20 19 18 18 18 17 17 17 16 17 17 17 15 18 20 18 18 18 15 14 15 16 16 16 16 16 17 17 16 16 15 15 15 15 15 14 14 14 14 14 14 14 14 14
20 20 18 19 19 18 18 18 18 16 16 16 14 17 19 18 18 18 17 15 16 17 17 18 17 17 18 18 17 16 16 16 16 16 16 15 15 16 16 16 16 16 16 16
17 18 18 19 20 20 20 20 19 18 17 17 15 17 18 19 19 19 20 19 19 18 19 19 19 18 17 17 17 17 17 17 17 17 16 16 16 17 17 17 17 17 17 17
19 19 18 19 20 20 20 19 18 18 19 18 16 17 18 19 20 20 22 22 21 20 19 19 19 18 17 17 18 18 18 18 18 17 17 17 18 18 18 19 19 19 19 18
21 21 19 19 21 20 20 20 20 20 20 18 16 16 17 19 19 21 22 22 21 20 20 20 19 19 17 18 18 18 18 18 17 17 17 18 19 19 20 20 21 20 20 20
23 22 21 21 21 21 21 21 20 22 22 20 18 18 17 18 19 20 22 23 23 21 22 21 19 19 19 18 18 18 18 18 18 17 18 19 19 19 20 21 21 21 21 22
23 24 23 21 20 20 21 22 21 22 22 20 19 19 20 21 21 22 23 23 22 21 21 21 20 20 19 18 18 18 18 18 18 18 19 19 19 19 20 21 21 21 22 22
25 26 25 21 20 21 22 22 22 23 22 22 21 21 23 23 21 21 22 23 23 22 19 20 21 20 19 19 19 19 18 18 18 19 19 19 20 20 20 20 20 20 21 22
26 27 26 23 21 20 21 23 24 25 24 23 22 23 24 25 23 23 23 23 24 23 21 21 22 22 21 21 20 19 19 20 20 20 20 20 20 20 20 20 21 21 21 22
27 27 27 26 24 23 23 23 24 26 26 25 24 24 25 26 24 24 24 24 24 23 23 23 23 23 23 23 22 22 21 21 21 21 21 20 20 20 20 21 21 22 22 23
25 26 26 25 24 25 26 25 24 25 25 25 25 25 25 25 25 25 25 26 24 23 23 24 24 23 23 23 24 23 23 22 21 21 21 21 21 21 21 22 22 23 23 23
25 26 26 25 24 26 26 26 26 27 27 27 27 28 26 26 26 25 25 25 25 24 24 24 25 24 24 24 24 24 24 23 22 22 22 22 22 22 22 23 23 24 24 24
24 25 26 26 25 25 25 25 25 27 29 30 30 29 29 28 29 27 27 27 26 26 25 25 25 25 25 25 25 25 25 24 24 24 24 24 24 24 24 24 24 25 25 25
24 25 26 27 26 25 24 24 25 26 30 29 30 31 31 30 30 29 29 29 28 27 27 27 26 26 26 25 26 26 26 26 26 26 26 26 25 25 25 25 26 26 26 26
24 25 27 27 27 26 27 26 27 27 28 28 29 31 32 32 31 31 31 31 29 28 28 28 28 27 27 27 27 27 27 27 27 28 27 27 26 26 26 27 27 27 27 27
26 26 26 27 27 28 28 28 28 29 30 30 30 32 32 32 32 32 33 33 32 30 29 30 30 29 30 29 29 28 28 28 29 29 28 27 27 28 28 28 28 28 29 28
25 27 28 28 29 29 28 29 30 31 31 31 31 32 31 32 32 32 33 34 34 33 32 32 32 31 31 31 30 30 30 30 30 30 30 29 29 29 29 29 29 29 30 30
25 27 27 29 29 28 29 30 31 31 30 29 29 31 31 32 32 33 34 35 36 35 34 34 33 31 31 31 31 31 31 31 30 30 30 31 30 30 30 30 30 30 30 30
25 26 27 29 29 29 30 30 30 30 29 30 31 32 33 32 31 34 35 35 35 35 34 34 33 32 31 31 31 31 32 31 31 32 32 31 31 31 31 31 31 31 31 31
26 26 28 30 30 30 29 31 33 32 30 31 31 32 33 34 33 32 33 33 33 32 33 33 32 31 31 32 32 32 32 32 32 32 32 32 32 32 32 32 32 32 33 33
Wind_Direction
232 232 231 229 230 230 229 236 240 245 253 262 261 257 262 265 269 270 271 275 274 281 283 288 292 295 297 303 309 309 309 308 308 309 308 304 303 303 299 296 291 292 295 298
233 235 235 234 236 234 234 233 236 241 254 254 259 257 261 262 268 267 269 271 272 274 280 285 288 290 292 296 304 308 308 307 308 309 307 302 301 301 299 298 292 292 295 296
235 231 235 238 240 235 236 235 233 235 249 252 255 255 255 263 266 267 267 268 269 274 277 283 284 286 288 295 303 306 306 307 306 305 304 302 300 299 299 298 295 294 294 292
234 231 234 237 238 238 238 238 238 235 243 253 258 258 253 262 268 268 266 265 266 272 275 280 284 284 286 290 295 297 300 303 303 302 300 300 301 300 298 296 292 291 293 291
230 233 236 239 240 237 237 236 239 237 243 246 248 255 256 260 263 261 262 263 262 271 275 279 281 282 283 286 289 293 295 298 299 300 298 297 300 299 297 295 291 289 290 289
230 229 234 238 240 238 234 238 242 237 242 245 242 250 255 256 264 263 257 261 265 271 275 280 281 281 283 286 288 290 291 294 296 297 296 295 298 297 294 293 292 291 292 291
235 234 233 235 237 236 235 238 242 243 245 249 248 253 257 256 265 266 260 264 269 270 274 280 281 281 283 286 286 288 288 290 292 293 294 293 295 293 292 289 288 288 290 292
236 236 235 239 240 238 235 235 239 242 250 253 251 251 256 259 267 270 270 266 269 271 274 278 280 279 280 284 286 286 285 286 287 288 290 290 292 292 291 289 288 288 288 288
233 238 237 241 241 236 236 238 236 242 251 255 250 251 256 261 265 270 270 270 271 274 275 279 280 280 281 284 285 284 284 283 284 284 285 286 290 290 289 289 290 289 289 289
229 232 232 240 242 238 235 239 236 238 249 256 254 256 256 265 268 271 272 274 277 275 274 277 279 281 280 282 285 283 282 283 282 281 282 284 287 287 288 288 287 286 286 287
229 231 227 233 238 237 235 231 233 236 241 249 259 261 265 266 267 269 272 275 276 276 275 277 280 279 279 279 280 281 279 282 282 280 282 285 285 286 288 289 288 283 282 284
233 234 229 227 234 238 239 236 236 239 239 241 252 265 265 262 262 265 270 274 274 275 276 276 277 281 283 282 281 282 278 279 281 281 281 282 285 287 290 289 287 286 286 286
234 235 230 226 229 233 234 234 233 238 242 242 247 259 266 267 264 270 273 274 274 274 275 276 277 280 280 279 281 283 279 279 279 279 281 282 286 288 290 291 289 286 287 287
233 232 232 230 231 235 237 236 234 236 239 242 244 252 260 265 270 273 276 274 273 271 271 272 274 275 276 276 278 281 283 282 280 279 283 285 288 289 291 292 291 290 289 290
235 234 234 231 228 232 241 242 238 238 237 241 244 250 256 259 266 271 274 274 271 271 273 273 272 273 274 275 275 276 279 281 282 282 285 289 289 291 292 293 294 293 292 292
236 236 237 233 230 232 238 240 243 243 242 243 244 251 256 263 263 265 269 272 273 271 271 271 272 273 274 274 274 275 277 279 280 282 283 285 287 289 292 294 295 298 297 296
238 237 237 234 234 237 239 237 240 247 248 249 249 252 255 259 264 265 267 270 271 270 270 270 270 272 274 275 275 274 276 278 279 279 280 281 283 285 289 291 294 296 297 298
240 239 237 235 234 240 244 246 244 245 247 250 251 252 256 261 264 266 265 268 271 271 270 269 270 272 274 276 275 275 276 278 278 278 279 280 283 285 287 290 292 294 296 296
240 240 240 240 239 241 242 245 248 250 249 249 251 254 255 259 264 267 267 269 270 270 271 270 270 271 274 275 274 275 276 276 276 277 277 279 283 285 287 288 291 293 294 295
242 242 242 242 243 245 244 246 249 252 252 249 252 255 257 259 262 265 266 268 268 269 270 269 269 270 272 273 274 274 275 275 276 276 277 278 282 284 285 286 289 290 293 294
243 244 245 244 245 247 249 249 249 249 252 254 255 256 258 259 262 265 265 266 268 269 269 269 269 270 271 272 273 273 274 275 276 276 276 276 280 281 283 285 286 288 291 293
240 242 246 246 247 250 250 250 251 252 254 255 258 260 260 261 260 263 263 265 266 267 267 268 269 269 270 270 272 273 273 274 275 275 275 275 278 280 281 283 285 288 290 292
243 243 244 246 247 248 250 250 252 252 255 257 258 259 261 261 261 262 263 264 266 266 266 268 268 268 269 269 270 271 272 272 273 273 274 275 278 280 282 283 285 286 289 290
247 247 246 248 251 250 250 252 252 253 255 258 258 259 261 262 263 263 264 265 266 266 267 268 268 268 268 268 270 271 271 272 272 273 274 275 276 278 279 281 283 285 287 288
246 248 250 251 254 254 253 254 256 258 258 259 261 260 261 264 265 264 266 266 265 266 268 268 267 267 266 266 268 271 272 272 272 273 274 274 275 276 277 279 282 284 285 286
251 254 256 255 252 255 256 258 259 259 263 263 263 263 263 265 266 265 265 266 265 265 267 268 267 267 266 267 269 271 273 273 272 272 273 274 275 276 277 279 281 283 284 286
Height
5863 5866 5868 5870 5873 5875 5876 5879 5881 5883 5883 5883 5883 5883 5882 5881 5882 5882 5882 5882 5881 5881 5881 5880 5880 5880 5880 5880 5879 5878 5878 5877 5876 5876 5875 5875 5874 5874 5873 5873 5873 5873 5873 5872
5862 5863 5866 5868 5870 5872 5874 5876 5878 5880 5879 5880 5880 5881 5879 5879 5879 5880 5880 5880 5879 5879 5879 5879 5879 5879 5879 5878 5878 5877 5876 5875 5875 5874 5873 5873 5873 5872 5872 5871 5871 5871 5871 5871
5858 5862 5864 5866 5867 5869 5871 5873 5874 5876 5876 5877 5878 5878 5878 5877 5876 5877 5878 5877 5877 5877 5876 5876 5877 5877 5876 5876 5876 5875 5874 5874 5873 5872 5871 5871 5871 5870 5870 5869 5869 5869 5869 5869
5856 5858 5860 5862 5864 5866 5868 5870 5871 5872 5874 5874 5875 5875 5875 5874 5873 5874 5874 5875 5875 5875 5874 5874 5874 5874 5874 5874 5874 5873 5872 5872 5871 5870 5870 5869 5868 5868 5867 5867 5867 5867 5867 5867
5852 5855 5856 5858 5861 5863 5865 5866 5867 5868 5870 5871 5871 5871 5872 5870 5868 5869 5871 5872 5872 5872 5871 5872 5872 5872 5871 5871 5871 5870 5870 5869 5869 5868 5867 5867 5866 5866 5865 5865 5864 5864 5864 5864
5847 5850 5852 5855 5857 5859 5861 5862 5863 5864 5865 5866 5867 5868 5868 5867 5866 5866 5867 5869 5869 5869 5869 5869 5869 5869 5868 5868 5867 5867 5867 5866 5866 5865 5865 5865 5864 5863 5863 5862 5862 5862 5862 5862
5843 5846 5848 5850 5852 5855 5856 5858 5859 5860 5860 5862 5864 5864 5863 5863 5863 5863 5864 5865 5866 5866 5866 5866 5866 5866 5865 5865 5865 5865 5864 5863 5863 5862 5862 5862 5861 5860 5860 5860 5859 5859 5859 5858
5839 5842 5844 5846 5848 5850 5852 5854 5856 5857 5858 5859 5860 5860 5860 5860 5860 5861 5861 5862 5863 5863 5863 5863 5863 5862 5862 5861 5861 5861 5860 5860 5860 5859 5859 5858 5858 5857 5857 5856 5856 5855 5855 5855
5835 5839 5841 5842 5844 5847 5848 5849 5852 5855 5854 5855 5857 5856 5855 5856 5857 5857 5858 5858 5858 5859 5859 5859 5858 5858 5858 5858 5857 5857 5856 5856 5856 5856 5855 5855 5855 5854 5853 5853 5852 5852 5851 5851
5830 5833 5837 5838 5840 5842 5844 5846 5848 5849 5850 5851 5852 5853 5853 5852 5853 5853 5853 5853 5854 5854 5854 5854 5854 5854 5854 5854 5853 5853 5852 5852 5852 5852 5852 5851 5851 5850 5849 5849 5848 5848 5847 5846
5824 5828 5832 5834 5834 5837 5840 5842 5843 5845 5847 5848 5849 5852 5849 5849 5849 5849 5848 5849 5850 5850 5850 5850 5850 5850 5849 5849 5849 5848 5848 5848 5848 5848 5848 5847 5846 5846 5845 5844 5843 5843 5842 5842
5819 5822 5825 5828 5831 5832 5834 5837 5839 5840 5841 5842 5844 5848 5844 5844 5844 5844 5845 5845 5845 5845 5845 5845 5844 5844 5844 5844 5844 5844 5843 5844 5844 5844 5843 5843 5842 5841 5840 5840 5839 5838 5837 5836
5814 5816 5819 5822 5827 5827 5828 5831 5833 5835 5836 5837 5840 5844 5840 5840 5839 5840 5840 5840 5840 5840 5840 5840 5840 5840 5840 5840 5839 5839 5838 5838 5839 5839 5838 5838 5837 5837 5836 5835 5834 5833 5832 5831
5808 5810 5813 5817 5819 5821 5823 5825 5828 5829 5831 5832 5835 5836 5836 5834 5834 5835 5835 5835 5835 5835 5835 5836 5836 5836 5836 5836 5835 5834 5834 5834 5834 5834 5833 5833 5833 5832 5831 5830 5829 5828 5827 5826
5801 5804 5806 5809 5812 5815 5817 5820 5822 5824 5825 5827 5830 5829 5829 5828 5829 5830 5830 5829 5829 5829 5830 5830 5831 5831 5831 5831 5831 5831 5830 5830 5829 5828 5828 5828 5828 5827 5826 5825 5824 5823 5822 5821
5794 5798 5800 5803 5807 5809 5811 5814 5816 5818 5820 5821 5823 5824 5824 5822 5823 5824 5824 5824 5824 5825 5825 5825 5825 5825 5825 5826 5826 5825 5825 5824 5824 5823 5823 5823 5823 5823 5822 5820 5819 5818 5816 5815
5788 5791 5794 5797 5800 5802 5804 5808 5810 5812 5814 5815 5816 5818 5817 5817 5817 5818 5818 5818 5818 5818 5819 5819 5819 5820 5820 5819 5819 5819 5819 5819 5818 5817 5817 5817 5818 5817 5816 5815 5814 5813 5811 5810
5782 5785 5788 5791 5794 5795 5800 5801 5804 5805 5807 5809 5809 5810 5810 5810 5810 5810 5811 5812 5812 5812 5812 5813 5813 5813 5813 5813 5813 5813 5813 5812 5812 5812 5811 5812 5812 5811 5811 5810 5808 5807 5805 5804
5776 5779 5782 5784 5786 5789 5792 5793 5795 5797 5798 5801 5802 5802 5803 5804 5804 5804 5804 5804 5805 5805 5805 5806 5806 5806 5807 5807 5807 5806 5806 5806 5806 5806 5806 5806 5806 5805 5804 5803 5802 5801 5799 5798
5770 5773 5776 5778 5780 5782 5785 5786 5788 5790 5790 5792 5793 5794 5795 5796 5796 5797 5797 5797 5798 5798 5798 5799 5799 5800 5800 5800 5800 5800 5800 5800 5800 5800 5799 5799 5799 5799 5798 5797 5796 5794 5793 5791
5764 5766 5768 5770 5772 5775 5777 5779 5781 5782 5782 5783 5785 5786 5787 5788 5789 5789 5789 5790 5790 5791 5791 5791 5792 5792 5792 5793 5793 5793 5793 5793 5793 5793 5792 5792 5792 5792 5791 5790 5789 5787 5786 5784
5758 5760 5761 5764 5766 5769 5769 5771 5773 5773 5774 5775 5777 5777 5778 5779 5779 5780 5781 5782 5783 5783 5784 5784 5784 5784 5785 5785 5785 5786 5786 5786 5786 5786 5785 5785 5785 5785 5784 5783 5782 5780 5778 5777
5751 5753 5754 5756 5759 5760 5760 5761 5762 5764 5765 5767 5768 5768 5770 5770 5771 5771 5773 5773 5774 5775 5776 5776 5775 5776 5776 5777 5777 5778 5778 5778 5778 5778 5777 5777 5777 5776 5776 5775 5774 5772 5771 5769
5745 5745 5747 5748 5749 5751 5753 5753 5754 5755 5756 5757 5758 5759 5761 5761 5762 5762 5763 5763 5764 5765 5766 5767 5767 5767 5767 5768 5768 5769 5769 5769 5769 5769 5769 5769 5769 5768 5767 5766 5765 5764 5762 5761
5736 5738 5739 5740 5742 5743 5744 5745 5746 5747 5748 5749 5750 5751 5751 5751 5751 5752 5752 5753 5754 5755 5756 5757 5757 5757 5758 5759 5760 5760 5760 5760 5760 5760 5760 5760 5760 5759 5758 5758 5756 5755 5754 5752
5730 5731 5732 5732 5733 5734 5736 5738 5738 5739 5739 5741 5742 5741 5742 5743 5743 5743 5743 5743 5744 5745 5746 5747 5747 5748 5749 5750 5751 5751 5751 5751 5751 5751 5751 5751 5750 5750 5749 5749 5748 5746 5745 5743